sat.trackr.live / text

‹ back to catalog

ONEWEB-0569

NORAD 55148 · 2023-004J

PAYLOAD ACTIVE UNKNOWN

§ Identity

Operator
Country
UK
Launch date
2023-01-10
Launch site
AFETR
Launch vehicle
Mass (kg)
RCS (m²)

Purposes: comms

External: N2YO · Heavens-Above · Gunter

§ Orbital elements

Epoch: 2026-05-25T00:03:33.723360Z

Period
109.63 min
Inclination
87.8948°
Eccentricity
0.0000897
Mean motion
13.13468804 rev/d
Perigee alt
1,209.1 km
Apogee alt
1,210.5 km
Semi-major
7,587.9 km
B*
-4.1977e-4
RAAN
324.8369°
Arg perigee
87.7384°
Mean anomaly
272.3848°
Rev number
16,713

§ Raw data

ONEWEB-05691 55148U 23004J   26145.00247365 -.00000141  00000+0 -41977-3 0  99952 55148  87.8948 324.8369 0000897  87.7384 272.3848 13.13468804167135

JSON: /api/v1/satellites/55148 · /tle

For live sub-satellite position, see the globe view (requires WebGL).

§ Visibility from observer

Set your observer location to see the next 7 days of passes ≥ 10°. The values pass through the URL so the page stays shareable.

No JS? Fill the form by hand. The geolocation button needs JavaScript.